Погода в Виамане

Бразилия     30°05′18″S   51°01′24″W
темп.,
°C
ветер,
м/с
пор.,
м/с
влажн.,
%
обл.,
%
осадки,
мм/ч
давл.,
гПа
погр.,
м
28 июля, ср
ср2800:00+8з512530 0.0 10211284
03:00+6зсз512610 0.0 10211027
06:00+6зсз512640 0.0 1020908
09:00+7зсз612591 0.0 1021939
12:00+10з7114720 0.0 10211630
15:00+10з7125595 0.1 10201811
18:00+7з61277100 0.6 10221221
21:00+6з6117165 0.6 10241228
29 июля, чт
чт2900:00+6з5117244 0.1 10261218
03:00+4з4107951 0.1 1026820
06:00+4з488041 0.0 1026598
09:00+5зсз47737 0.0 1028574
12:00+9з465021 0.0 10291467
15:00+12зюз464066 0.0 10271877
18:00+10з265158 0.0 1028379
21:00+8зсз25625 0.0 1030247
30 июля, пт
пт3000:00+7зсз24680 0.0 1031166
03:00+6сз13710 0.0 1030124
06:00+5ссз12740 0.0 103076
09:00+7ссз11623 0.0 1032233
12:00+12вюв23505 0.0 10321059
15:00+14в23470 0.0 10301176
18:00+11юв37660 0.0 1029283
21:00+8вюв310780 0.0 1030317
31 июля, сб
сб3100:00+7в26840 0.0 1031194
03:00+6всв13770 0.0 103085
06:00+6всв12750 0.0 103052
09:00+9ссз12600 0.0 1032167
12:00+15в12421 0.0 1031553
15:00+18вюв1241100 0.0 1029883
18:00+14юв3673100 0.0 1029224
21:00+12вюв2485100 0.0 1030135
1 августа, вс
вс100:00+12св1182100 0.0 103128
03:00+11всв1180100 0.0 103012
06:00+11ссв0079100 0.0 103111
09:00+13с2371100 0.0 1031162
12:00+18ссз2353100 0.0 1031842
15:00+17ссв2460100 0.1 1030549
18:00+13св2586100 0.4 1029261
21:00+13вюв1395100 1.9 1029217